Location: Fauquembergues
(50.6005°N, 2.0987°E)
Time: 10:57:33
(UTC+00:00)

Cosmos 1140 Rocket - Pass Details

Date: 14 July 2020
Orbit: 744 x 768 km, 74.1° (Epoch: 05 August)

Event Time Altitude Azimuth Distance (km) Brightness Sun altitude
Exits shadow 02:32:12 13° 222° (SW) 2,077 5.1 -10.1°
Maximum altitude 02:36:44 56° 299° (WNW) 912 3.9 -9.7°
Drops below altitude 10° 02:41:54 10° 18° (NNE) 2,317 7.3 -9.2°
Sets 02:44:21 0° 23° (NNE) 3,249 8.5 -9.0°
